IRIDIUM 47 DEB, 40255

Orbit data source: Space-Track

IRIDIUM 47 DEB, 40255 is space debris in LEO originally from a launch on Sat, 20 Dec 1997 UTC launched from the Air Force Western Test Range (AFWTR). Debris objects in space refer to the collection of defunct objects orbiting the Earth. Examples of debris include non-operational satellites, rocket bodies, and fragments generated from explosions, collisions, or faulty payload assembly.

Loading next visibility...
Identifier
40255, 1997-082Q
Orbit
LEO
Country
Flag of USUS
Related business
Manufacturer
Unknown
Mission
Spacecraft
Bus & Motor
Unknown
Mass
Unknown
Launch date (UTC)
1997-12-20 (28 years ago)
Launch vehicle
Unknown
Launch site
Air Force Western Test Range (AFWTR)
Object type
Payload
Rocket body
Debris
Shape & HBR
Unknown shape, 0.1 m
Radar Cross Section
Small (<0.1 m²)

Expand to show TLE details & history
Last TLE update: 1 day ago

TLE from 1 day ago
0 IRIDIUM 47 DEB
1 40255U 97082Q   25310.13993382  .00017527  00000-0  56182-2 0  9997
2 40255  86.2815  97.9831 0145406 262.3507  96.1154 14.33524955572348
Epoch: 2025-11-06T03:21Z
TLE epoch observation values (Epoch: 2025-11-06T03:21:30.282Z)
Latitude
-0.00005°
Longitude
2.00439°
Altitude
795.605 km
Speed
7.449 km/s
True Right ascension
06h 31m 55s
True Declination
0° 00' 00"
Sunlit
Object was in full shadow at epoch
Visualization orbit readout
Latitude
Unknown
Longitude
Unknown
Altitude
Unknown
Speed
Unknown
Apparent Right ascension
Unknown
Apparent Declination
Unknown
Sunlit
N/A
Visualization observer readout
Local Sidereal Time
02:40:57
Azimuth
Unknown
Elevation
Unknown
Doppler factor
Unknown
Orbital elements
Apogee altitude
880.978 km
Perigee altitude
672.9 km
Semi-major axis
7,155.076 km
Eccentricity
0.01454
Inclination
86.2815°
RAAN
97.9831°
Arg. of periapsis
262.3507°
True anomaly
97.76872°
Mean anomaly
96.1154°
Eccentric anomaly
96.94241°
Mean motion
3.58609 °/min
Orbital period
100.39 mins
BSTAR
0.0056182
Loading maneuver chart data...
Computing Atmospheric mass density...

Documentation

Showing up to 5 results
|